Regional Weather Roundup
Issued by NWS

Home | Current Version | Previous Version | Text Only | Print | Product List | Glossary Off
Versions: 1 2 3 4 5 6 7 8 9 10 11 12 13 14 15 16 17 18 19 20 21 22 23 24 25 26 27 28 29 30 31 32 33 34 35 36 37 38 39 40 41 42 43 44 45 46 47 48 49 50

000
ASUS43 KBIS 192302
RWRND

NORTH DAKOTA REGIONAL WEATHER ROUNDUP
NATIONAL WEATHER SERVICE BISMARCK ND
600 PM CDT THU OCT 19 2017

NOTE: "FAIR" INDICATES FEW OR NO CLOUDS BELOW 12,000 FEET WITH NO
SIGNIFICANT WEATHER AND/OR OBSTRUCTIONS TO VISIBILITY.


NDZ001>003-009>011-017-200000-
NORTHWEST NORTH DAKOTA

CITY           SKY/WX    TMP DP  RH WIND       PRES   REMARKS
WILLISTON      CLEAR     77  33  20 S7        29.63F
MINOT          CLEAR     77  33  20 S10       29.65S
MINOT AFB      CLEAR     75  33  22 S9        29.63S
$$

NDZ018>021-031>035-040>046-200000-
SOUTHWEST NORTH DAKOTA

CITY           SKY/WX    TMP DP  RH WIND       PRES   REMARKS
BISMARCK       CLEAR     73  37  27 SE13      29.71F
DICKINSON      CLEAR     77  31  18 S5        29.69F
GARRISON         N/A     72  36  26 S5        29.68F
HETTINGER ARPT CLEAR     76  27  16 SE5       29.73F
$$

NDZ004>008-012>016-024-026-027-054-200000-
NORTHEAST NORTH DAKOTA

CITY           SKY/WX    TMP DP  RH WIND       PRES   REMARKS
GRAND FORKS    PTCLDY    69  41  36 S14       29.71F
GRND FRKS AFB  CLEAR     67  39  35 S10       29.72S
DEVILS LAKE    CLEAR     69  39  33 S7        29.70S
$$

NDZ022-023-025-028>030-036>039-047>053-200000-
SOUTHEAST NORTH DAKOTA

CITY           SKY/WX    TMP DP  RH WIND       PRES   REMARKS
FARGO          CLEAR     69  42  37 S9        29.76S
JAMESTOWN      CLEAR     69  42  37 S9        29.74S
$$





USA.gov is the U.S. government's official web portal to all federal, state and local government web resources and services.